Temp
9 9 9 10 10 10 10 10 10 9 9 9 9 9 9 9 9 9 9 9 9 9 9 10 10 10 10 10 10 10 10 10 10 10 10 10 10 10 10 10 10 10
9 9 9 9 10 10 10 10 10 10 9 9 10 10 9 9 9 9 9 9 9 9 9 9 10 10 10 10 10 10 10 10 10 10 10 10 10 10 10 10 10 10
9 9 9 9 9 9 9 9 9 10 9 9 10 10 9 9 9 9 9 9 9 9 9 9 9 10 10 10 10 10 10 10 10 10 10 10 10 10 10 10 10 10
9 9 9 9 9 9 9 9 9 9 9 10 10 10 10 9 9 9 9 9 9 9 9 9 9 10 10 10 10 10 10 10 10 10 10 10 10 10 10 10 10 10
9 9 9 9 9 9 9 9 9 9 9 10 10 10 10 9 9 9 9 9 9 9 9 9 9 9 10 10 10 10 10 10 10 10 10 10 10 10 10 10 10 10
9 9 9 9 9 9 9 9 9 9 9 10 10 10 10 10 10 10 10 9 9 9 9 9 9 9 9 9 10 10 9 10 10 10 10 10 10 10 10 10 10 10
10 9 9 9 9 9 9 9 9 9 9 10 10 10 10 9 10 10 10 10 9 9 9 9 9 9 9 9 9 9 9 10 10 10 10 10 10 10 10 10 10 10
10 10 9 9 9 9 9 9 9 9 9 9 10 10 10 9 9 10 10 10 10 10 10 10 10 10 9 9 9 9 9 10 10 10 10 10 10 10 10 10 10 10
10 10 10 10 10 9 9 9 9 9 9 9 9 10 10 10 10 10 9 9 10 10 10 10 10 10 10 10 10 10 10 10 10 10 9 10 10 10 10 10 10 10
10 10 10 10 10 10 10 9 9 9 9 9 9 9 10 10 9 9 9 9 9 10 10 10 10 10 10 10 10 10 10 10 10 10 10 10 10 10 10 10 10 10
10 10 10 10 10 10 10 10 10 9 9 9 9 9 9 9 9 9 9 9 9 9 9 10 10 10 10 10 10 10 10 10 10 10 10 10 10 10 10 10 10 10
10 10 10 10 10 10 10 10 10 10 10 9 9 9 9 9 9 9 9 9 9 9 9 9 9 9 9 9 9 10 10 10 10 10 10 10 10 10 10 10 10 10
10 10 10 10 10 10 10 10 10 10 10 10 9 9 9 9 9 9 9 9 9 9 9 9 9 9 9 9 9 9 9 9 10 10 10 10 10 10 10 10 10 10
10 10 10 10 10 10 9 9 9 9 9 9 9 9 9 9 9 9 9 9 9 9 9 9 9 9 9 9 9 9 9 9 10 10 10 10 10 10 10 10 10 10
10 10 10 10 10 10 9 9 9 9 9 9 9 9 9 9 9 9 9 9 9 9 9 9 9 9 9 9 9 9 10 10 10 10 10 10 10 10 10 10 10 10
10 10 10 10 10 10 10 9 9 9 9 9 9 9 9 9 9 9 9 9 9 9 9 9 9 9 9 9 9 9 9 9 9 9 10 9 9 10 10 10 10 10
10 10 10 10 10 10 10 10 9 9 9 9 9 9 9 9 9 9 9 9 9 9 9 9 9 9 9 9 9 9 9 9 9 9 9 9 9 9 9 10 10 10
9 10 10 10 10 10 10 10 10 9 9 9 9 9 9 9 9 9 9 9 9 9 9 9 9 9 9 9 9 9 9 9 9 9 9 9 9 9 9 9 9 10
9 9 10 9 9 9 10 10 9 9 9 9 9 9 9 9 9 9 9 9 9 9 9 9 9 9 9 9 9 9 9 9 9 9 9 9 9 9 9 9 9 9
9 9 9 9 9 9 9 9 9 9 9 9 9 9 9 9 9 9 9 9 9 9 9 9 10 9 9 9 9 9 9 9 9 9 9 9 9 9 9 9 9 9
9 9 9 9 9 9 9 9 9 9 9 9 9 9 9 9 9 9 9 9 9 9 9 9 9 9 9 9 9 9 9 9 9 9 9 9 9 10 10 9 9 9
9 9 9 9 9 8 9 9 9 9 9 9 9 9 9 9 9 9 9 9 9 9 9 9 9 9 9 9 9 9 9 9 9 9 9 9 9 10 10 10 10 10
9 9 9 9 8 9 8 9 9 9 9 8 8 9 9 9 9 9 9 8 9 9 9 9 9 9 9 9 9 9 9 9 9 9 9 9 9 9 9 9 10 10
9 9 9 9 9 9 9 9 9 8 8 8 8 9 9 9 9 9 9 8 8 9 9 9 9 9 9 9 9 9 9 9 9 9 9 9 9 9 9 9 9 9
10 10 9 9 9 9 9 9 8 8 8 8 8 8 9 9 9 9 9 8 8 8 8 8 9 9 9 9 9 9 9 9 9 9 8 8 9 9 9 9 9 9
9 10 9 9 9 9 9 9 8 8 8 8 8 8 8 8 8 9 9 8 8 8 8 8 8 8 9 9 9 9 9 9 9 8 8 8 8 8 8 8 8 9
Height
3242 3243 3244 3245 3246 3247 3248 3248 3249 3250 3251 3252 3253 3253 3254 3254 3255 3256 3256 3257 3258 3259 3259 3260 3261 3261 3262 3263 3264 3264 3265 3265 3266 3266 3267 3268 3268 3269 3269 3270 3270 3270
3242 3243 3244 3245 3246 3247 3247 3248 3249 3250 3250 3251 3252 3253 3254 3254 3255 3255 3256 3257 3258 3258 3259 3259 3260 3261 3261 3262 3263 3264 3264 3265 3266 3266 3267 3267 3268 3268 3269 3269 3270 3270
3241 3242 3243 3244 3245 3246 3247 3248 3249 3249 3250 3251 3251 3252 3253 3254 3255 3255 3256 3256 3257 3258 3258 3259 3260 3260 3261 3262 3262 3263 3264 3264 3265 3266 3266 3267 3267 3268 3268 3269 3269 3269
3240 3241 3242 3243 3244 3245 3246 3247 3248 3249 3250 3250 3251 3252 3253 3253 3254 3255 3256 3256 3257 3257 3258 3259 3259 3260 3260 3261 3262 3262 3263 3263 3264 3265 3265 3266 3266 3267 3268 3268 3268 3269
3240 3240 3241 3242 3243 3245 3246 3246 3247 3248 3249 3250 3250 3251 3252 3253 3254 3255 3255 3256 3257 3257 3258 3258 3259 3260 3260 3261 3261 3262 3262 3263 3263 3264 3264 3265 3265 3266 3266 3267 3267 3268
3239 3240 3240 3241 3242 3244 3245 3246 3247 3247 3248 3249 3250 3251 3252 3252 3253 3254 3255 3256 3256 3257 3257 3258 3258 3259 3260 3260 3261 3261 3262 3262 3262 3263 3263 3264 3264 3265 3265 3266 3266 3267
3238 3239 3240 3241 3242 3243 3244 3245 3246 3247 3248 3248 3249 3250 3251 3252 3253 3253 3254 3255 3256 3256 3257 3257 3258 3258 3259 3259 3260 3260 3261 3261 3262 3262 3263 3263 3264 3264 3264 3265 3265 3266
3236 3238 3239 3240 3241 3242 3243 3244 3245 3246 3247 3248 3249 3250 3250 3251 3252 3253 3253 3254 3255 3255 3256 3257 3257 3258 3258 3258 3259 3260 3260 3261 3261 3262 3262 3262 3263 3263 3264 3264 3264 3264
3235 3236 3238 3239 3240 3241 3242 3243 3244 3245 3246 3247 3248 3249 3250 3251 3251 3252 3253 3253 3254 3254 3255 3256 3256 3257 3258 3258 3258 3259 3259 3260 3261 3261 3261 3262 3262 3262 3263 3263 3263 3263
3234 3235 3237 3238 3239 3240 3241 3242 3243 3244 3245 3246 3247 3248 3249 3250 3250 3251 3252 3252 3253 3254 3254 3255 3256 3257 3257 3258 3258 3258 3259 3259 3259 3260 3260 3261 3261 3261 3262 3262 3262 3262
3233 3234 3235 3236 3238 3239 3240 3241 3242 3243 3244 3245 3246 3247 3248 3248 3249 3250 3251 3252 3252 3253 3254 3254 3255 3256 3256 3257 3257 3258 3258 3258 3258 3259 3259 3259 3260 3260 3261 3261 3261 3261
3231 3232 3234 3235 3236 3237 3238 3239 3241 3242 3243 3244 3245 3245 3246 3247 3248 3249 3250 3251 3251 3252 3253 3253 3254 3255 3255 3256 3256 3257 3257 3257 3257 3258 3258 3258 3259 3259 3259 3260 3260 3260
3229 3230 3232 3233 3234 3235 3236 3238 3239 3240 3241 3242 3243 3244 3245 3246 3247 3248 3249 3250 3250 3251 3252 3252 3253 3254 3254 3255 3255 3256 3256 3257 3257 3257 3258 3258 3258 3258 3259 3259 3259 3259
3227 3228 3229 3230 3232 3233 3234 3236 3237 3238 3239 3240 3241 3242 3244 3245 3246 3246 3247 3248 3249 3250 3250 3251 3252 3252 3253 3253 3254 3254 3255 3256 3256 3256 3257 3257 3257 3258 3258 3258 3258 3258
3224 3225 3227 3228 3229 3230 3232 3233 3235 3236 3237 3238 3239 3241 3242 3243 3244 3245 3246 3247 3247 3248 3249 3250 3250 3251 3251 3252 3252 3253 3254 3254 3255 3255 3256 3256 3256 3257 3257 3257 3257 3258
3222 3223 3224 3226 3227 3228 3229 3231 3232 3234 3235 3236 3237 3239 3240 3241 3242 3243 3244 3245 3246 3247 3247 3248 3249 3249 3249 3250 3251 3252 3253 3253 3253 3254 3254 3255 3255 3255 3256 3256 3256 3256
3219 3220 3222 3223 3224 3225 3227 3228 3230 3231 3232 3234 3235 3236 3238 3239 3240 3241 3242 3244 3244 3245 3246 3246 3246 3247 3248 3249 3250 3250 3251 3252 3252 3253 3253 3253 3254 3254 3254 3254 3255 3255
3216 3217 3219 3221 3222 3223 3224 3225 3226 3228 3229 3231 3232 3233 3235 3236 3238 3239 3240 3242 3242 3243 3244 3243 3244 3245 3247 3247 3248 3249 3249 3250 3251 3251 3251 3252 3252 3252 3252 3253 3253 3253
3212 3214 3215 3217 3219 3220 3221 3222 3223 3224 3225 3227 3229 3230 3232 3233 3235 3237 3238 3239 3240 3241 3241 3241 3242 3244 3245 3245 3246 3247 3247 3248 3249 3249 3249 3250 3250 3250 3250 3250 3251 3251
3209 3210 3211 3213 3215 3216 3216 3217 3219 3221 3222 3224 3226 3227 3229 3231 3232 3234 3235 3236 3237 3238 3238 3239 3241 3242 3242 3243 3244 3244 3245 3246 3246 3247 3247 3247 3247 3248 3248 3248 3248 3248
3204 3206 3207 3209 3210 3211 3212 3214 3216 3218 3220 3222 3224 3225 3227 3228 3230 3231 3232 3233 3234 3234 3235 3236 3238 3239 3240 3241 3241 3242 3243 3243 3244 3245 3245 3245 3245 3245 3246 3246 3246 3246
3199 3201 3202 3204 3206 3207 3208 3210 3213 3215 3217 3219 3221 3222 3223 3225 3227 3228 3229 3230 3230 3230 3231 3234 3235 3236 3237 3238 3238 3239 3240 3240 3241 3241 3242 3242 3242 3242 3243 3243 3243 3243
3195 3196 3198 3201 3202 3203 3204 3206 3208 3210 3213 3216 3217 3218 3220 3222 3223 3224 3225 3226 3226 3227 3229 3231 3232 3233 3234 3235 3235 3236 3237 3237 3238 3238 3238 3239 3239 3239 3239 3239 3239 3240
3192 3194 3196 3198 3200 3201 3202 3204 3205 3207 3209 3212 3213 3214 3217 3219 3220 3221 3221 3221 3222 3224 3226 3227 3229 3230 3231 3232 3232 3233 3233 3234 3234 3234 3234 3235 3235 3236 3236 3235 3235 3236
3190 3192 3194 3196 3197 3199 3200 3202 3202 3203 3205 3207 3208 3211 3214 3215 3217 3218 3217 3217 3219 3221 3223 3224 3225 3227 3228 3229 3229 3230 3230 3230 3230 3230 3230 3231 3232 3231 3231 3231 3232 3233
3188 3190 3192 3194 3195 3197 3198 3199 3199 3200 3202 3203 3204 3207 3210 3212 3213 3214 3213 3214 3217 3219 3220 3221 3222 3223 3224 3225 3226 3226 3227 3227 3227 3227 3227 3228 3228 3227 3227 3228 3228 3228
Wind_Speed
12 13 12 12 12 11 11 11 11 12 11 11 10 10 10 10 11 11 10 10 10 10 11 11 12 11 10 10 10 10 10 9 9 9 9 8 8 8 8 7 7 7
11 11 11 11 11 10 10 10 10 11 11 11 11 10 10 10 10 11 10 11 11 11 11 12 12 12 11 11 10 10 10 10 9 9 9 9 9 8 8 8 7 8
11 11 10 10 10 10 10 10 9 10 10 11 10 10 9 9 10 10 10 10 11 11 12 12 12 12 12 11 11 11 11 11 11 10 10 10 9 8 8 8 8 8
12 11 11 11 11 10 10 10 10 10 10 10 10 10 9 9 9 9 9 10 10 11 11 11 11 11 11 11 11 11 11 11 11 11 11 10 10 9 9 9 8 8
13 13 13 13 12 11 10 10 11 10 10 10 10 10 9 9 9 9 9 9 9 10 10 11 11 11 11 11 12 12 11 12 12 12 12 11 11 10 10 10 10 10
14 14 14 14 13 12 11 11 12 11 11 10 10 10 10 10 10 9 9 9 9 9 10 10 11 11 11 11 11 11 11 12 12 12 12 12 12 11 11 11 11 11
15 15 15 15 14 14 13 12 12 12 12 11 10 10 10 11 11 10 10 9 9 10 10 10 11 11 10 10 10 11 11 11 12 12 12 13 13 13 12 12 12 12
17 16 16 16 15 15 14 13 13 12 12 12 11 11 11 11 11 11 11 11 11 11 11 11 11 11 10 10 10 10 10 10 10 11 11 12 12 13 13 13 13 13
18 17 17 17 16 16 15 14 14 14 13 13 12 12 12 12 12 12 12 12 12 12 12 12 11 11 10 10 11 10 10 10 10 11 11 11 11 12 12 12 13 13
19 19 18 18 17 17 16 16 15 15 15 14 14 14 14 13 13 13 13 13 13 13 13 13 12 12 11 11 11 11 11 11 11 11 11 11 11 11 11 12 12 13
21 20 20 19 18 18 17 17 17 17 16 16 15 15 15 15 14 14 14 14 14 14 14 14 14 13 12 12 12 12 11 11 11 11 11 11 11 11 11 11 11 12
23 23 21 21 20 19 19 19 19 18 18 17 17 17 16 16 15 15 15 15 15 15 15 15 15 14 14 13 13 12 12 12 12 11 11 12 12 11 11 11 11 11
26 25 24 23 22 22 22 21 21 20 19 19 19 18 18 17 17 16 16 16 16 16 15 15 15 15 14 14 14 14 13 13 13 13 12 13 12 12 11 11 11 11
26 27 27 26 26 25 24 24 23 22 21 21 21 20 20 19 19 18 17 17 17 17 16 16 16 16 15 15 15 15 15 14 14 14 14 14 13 13 13 13 12 12
26 27 28 28 28 27 26 26 25 24 24 23 23 22 22 21 21 20 20 19 18 18 17 17 17 17 16 16 16 15 15 15 15 15 15 15 15 15 14 14 14 14
26 26 26 28 28 28 28 27 27 26 26 25 25 24 24 23 23 22 21 21 20 19 19 18 18 19 18 17 17 16 16 16 16 16 16 16 16 16 16 16 16 16
29 27 27 27 28 28 28 27 28 28 28 27 26 26 25 25 24 23 23 22 22 21 21 20 22 21 19 18 18 18 17 17 16 16 16 17 17 17 17 17 18 18
32 31 30 29 28 28 28 28 29 29 29 29 28 28 27 26 25 24 24 23 23 23 23 24 24 22 20 20 20 19 19 18 18 18 18 18 18 18 18 18 19 19
34 34 33 31 29 30 30 30 31 31 31 30 30 30 28 27 26 25 24 25 25 25 26 27 25 23 22 22 22 21 21 20 19 19 19 19 20 20 20 20 20 20
34 34 35 34 33 33 33 33 32 32 32 31 31 31 29 27 27 26 26 26 27 27 28 28 26 24 24 23 22 22 22 21 21 20 20 21 21 21 21 21 21 21
34 34 35 36 36 37 37 35 34 33 33 32 31 30 29 28 27 27 27 27 28 29 29 28 26 26 25 24 24 23 23 23 22 22 22 22 23 22 22 22 22 23
34 34 34 35 37 38 38 37 36 35 35 32 29 29 29 27 27 28 28 28 29 30 30 27 26 26 26 25 25 24 23 23 23 23 23 23 23 23 23 24 24 24
31 32 31 32 34 35 35 36 37 37 36 32 28 29 29 26 26 28 28 28 29 30 30 28 27 27 26 25 25 24 23 23 23 23 23 23 23 23 23 24 25 24
25 26 27 29 30 30 31 33 35 36 36 32 28 30 30 27 27 28 29 30 30 29 28 28 27 27 25 25 25 24 24 24 24 24 24 23 24 24 24 25 25 24
20 22 23 24 25 25 26 28 29 31 32 30 29 32 31 27 26 29 32 33 30 27 26 26 26 26 26 25 26 26 26 26 26 26 25 24 25 26 25 26 26 26
21 22 21 21 21 21 21 23 24 25 27 29 29 31 32 29 27 29 31 31 29 26 26 25 24 25 25 25 25 25 26 26 26 26 25 25 26 27 26 27 28 28
Wind_Direction
176 179 181 184 185 185 187 186 185 184 182 181 185 187 188 190 192 194 195 194 194 193 193 193 195 196 195 194 192 192 191 189 189 190 191 189 183 178 173 172 175 178
181 184 186 188 187 184 186 191 194 195 191 189 192 193 192 193 195 197 199 200 199 199 198 198 200 202 202 201 199 201 203 201 202 203 203 203 199 193 188 185 186 186
190 188 190 193 195 192 191 194 197 201 201 198 198 197 195 198 201 202 201 202 203 204 204 203 204 206 207 206 205 206 209 209 210 212 214 214 212 208 205 202 199 199
197 196 195 197 202 203 201 201 203 205 205 204 202 200 199 203 208 209 207 207 206 206 208 209 209 210 211 210 210 211 214 215 216 218 220 221 221 219 218 217 216 213
203 202 201 201 203 206 206 207 210 211 210 208 206 205 204 207 211 213 213 212 210 210 212 214 214 215 217 217 217 218 220 221 222 222 224 226 227 227 227 227 226 225
208 208 208 206 205 205 206 208 212 217 218 214 210 208 209 211 213 215 217 215 215 214 214 217 219 221 223 225 225 226 227 228 228 228 229 231 234 235 235 234 233 233
211 213 214 212 209 208 209 210 213 219 224 223 217 212 212 214 216 218 219 219 219 220 220 222 226 226 227 230 232 232 234 235 236 235 235 236 238 240 241 242 242 241
214 215 217 218 215 213 214 215 217 220 225 228 225 220 217 217 220 222 223 223 224 226 227 229 232 231 230 232 235 236 238 239 241 242 241 241 242 244 245 247 249 249
218 217 219 221 221 220 219 220 222 224 226 228 228 227 223 222 223 224 226 227 229 231 232 234 236 237 236 236 237 239 240 240 242 245 245 246 248 249 248 249 251 251
221 220 221 223 224 225 224 225 228 231 231 230 230 230 229 227 227 227 227 229 232 233 233 234 236 238 240 240 240 240 241 241 241 243 245 246 248 250 249 250 251 252
227 225 224 224 226 228 229 229 230 233 235 234 233 233 233 231 231 231 230 230 232 234 233 234 235 236 239 241 242 243 243 242 242 242 243 244 247 249 248 249 250 250
230 230 229 227 227 228 231 232 232 234 236 237 237 237 237 236 236 236 235 233 233 234 235 236 236 237 238 240 243 245 245 246 246 246 245 245 247 249 250 251 250 249
231 232 232 231 230 229 231 233 234 236 237 238 239 239 239 239 239 239 239 237 236 236 238 239 240 241 242 243 244 247 248 250 251 252 253 252 253 253 254 254 252 251
232 232 233 233 233 232 233 234 235 237 238 239 239 240 240 240 240 240 240 240 239 238 239 241 242 244 245 245 245 247 249 251 252 254 256 257 258 259 259 259 258 257
232 232 233 234 234 234 235 236 237 238 239 240 240 240 240 240 240 240 240 240 240 239 240 241 244 245 246 246 246 246 248 250 252 254 256 258 259 260 262 263 264 264
235 234 234 235 236 236 236 237 238 239 239 240 241 241 240 240 239 239 240 240 240 241 241 242 244 245 244 245 246 247 248 251 253 256 258 259 260 261 262 264 265 266
238 237 236 236 238 238 237 237 238 239 239 239 239 239 240 241 240 240 240 240 241 240 240 241 243 244 245 246 247 249 250 251 254 257 259 261 262 262 262 263 264 265
237 238 238 238 239 239 238 236 237 239 240 239 239 238 239 240 240 240 240 240 241 240 240 240 241 243 245 247 248 249 250 251 252 255 258 260 261 262 262 263 264 266
234 236 237 237 238 239 238 235 234 237 238 239 239 238 238 238 241 242 242 242 242 242 242 242 243 244 245 246 249 250 251 252 252 253 256 259 260 262 263 263 264 265
232 234 235 236 236 237 238 237 235 236 237 239 240 240 239 238 240 242 243 243 245 245 245 246 246 245 246 247 249 251 252 253 253 254 256 258 259 260 261 262 263 265
233 233 234 235 235 235 237 240 241 241 240 238 239 241 242 240 240 242 243 245 246 247 248 248 247 247 247 247 248 250 252 253 254 255 256 258 259 260 261 263 264 264
232 233 234 235 236 237 237 239 243 245 244 240 239 242 244 242 241 241 242 244 245 247 248 248 247 247 246 246 246 247 250 251 253 254 255 258 260 262 263 264 264 264
231 234 236 238 241 243 242 241 243 244 243 240 239 244 246 244 242 243 244 244 244 247 249 249 248 247 246 246 246 246 248 250 252 254 255 257 260 262 264 265 264 263
233 238 240 242 245 247 247 245 245 244 242 237 235 241 245 243 241 242 244 244 242 243 247 248 248 248 247 247 247 248 249 250 251 253 253 255 257 259 261 262 263 263
229 235 239 240 241 242 243 244 244 242 240 236 234 238 240 241 241 241 243 245 244 243 244 246 247 247 248 250 251 250 250 249 251 254 254 254 256 257 258 260 262 264
222 227 231 235 237 239 242 244 241 239 237 234 233 234 234 236 239 240 242 244 244 244 245 246 247 249 249 251 252 250 249 248 249 253 255 254 254 256 259 261 264 266